This is the latest recevied weather packets stored in our database for station/object N6ZHV-13. If no packets are shown the sender has not sent any weather packets the latest 1 day(s).
| Time | Temp. | Humidity | Pressure | Rain* | Wind** | Luminosity | Snow |
|---|---|---|---|---|---|---|---|
| 1778014791 | 17.22° C | 53% | 1016.9 hPa | 0 mm | 1.34 m/s, 271° | - | - |
| 1778014491 | 17.78° C | 52% | 1016.9 hPa | 0 mm | 0.45 m/s, 313° | - | - |
| 1778014191 | 17.78° C | 52% | 1016.9 hPa | 0 mm | 1.79 m/s, 300° | - | - |
| 1778013891 | 17.78° C | 54% | 1016.8 hPa | 0 mm | 4.02 m/s, 248° | - | - |
| 1778013591 | 17.78° C | 53% | 1016.9 hPa | 0 mm | 0 m/s | - | - |
| 1778013291 | 17.78° C | 53% | 1016.9 hPa | 0 mm | 3.13 m/s, 251° | - | - |
| 1778012991 | 17.78° C | 54% | 1017 hPa | 0 mm | 0 m/s | - | - |
| 1778012691 | 17.22° C | 56% | 1016.9 hPa | 0 mm | 0.89 m/s, 227° | - | - |
| 1778012391 | 16.67° C | 53% | 1016.9 hPa | 0 mm | 1.79 m/s, 241° | - | - |
| 1778012091 | 17.22° C | 56% | 1016.9 hPa | 0 mm | 2.24 m/s, 277° | - | - |
| 1778011791 | 16.67° C | 55% | 1017 hPa | 0 mm | 3.13 m/s, 254° | - | - |
| 1778011491 | 17.22° C | 55% | 1017 hPa | 0 mm | 2.68 m/s, 260° | - | - |
| 1778011191 | 17.22° C | 56% | 1017 hPa | 0 mm | 3.13 m/s, 310° | - | - |
| 1778010891 | 17.22° C | 54% | 1017.1 hPa | 0 mm | 2.68 m/s, 271° | - | - |
| 1778010591 | 17.78° C | 55% | 1017 hPa | 0 mm | 1.79 m/s, 286° | - | - |
| 1778010291 | 17.22° C | 55% | 1017.1 hPa | 0 mm | 1.79 m/s, 250° | - | - |
| 1778010001 | 17.22° C | 55% | 1017.2 hPa | 0 mm | 0.45 m/s, 225° | - | - |
| 1778009691 | 17.22° C | 54% | 1017.3 hPa | 0 mm | 3.58 m/s, 264° | - | - |
| 1778009391 | 17.22° C | 54% | 1017.2 hPa | 0 mm | 2.68 m/s, 219° | - | - |
| 1778009091 | 17.22° C | 54% | 1017.3 hPa | 0 mm | 3.58 m/s, 275° | - | - |
| 1778008791 | 17.22° C | 54% | 1017.3 hPa | 0 mm | 0.45 m/s, 192° | - | - |
| 1778008491 | 17.22° C | 53% | 1017.4 hPa | 0 mm | 0.45 m/s, 236° | - | - |
| 1778008191 | 17.22° C | 55% | 1017.4 hPa | 0 mm | 2.68 m/s, 282° | - | - |
| 1778007891 | 16.67° C | 53% | 1017.4 hPa | 0 mm | 1.34 m/s, 196° | - | - |
| 1778007591 | 16.67° C | 57% | 1017.4 hPa | 0 mm | 1.34 m/s, 206° | - | - |
* Rain latest hour (hover to see other rain measurements)
** Current wind speed in m/s (hover to see current wind gust speed)